Location: Cahas Mountain Overlook
(37.0833°N, 80.1000°W)
Time: 15:33:01
(UTC-05:00)

S-56A Canister/Altair - Pass Details

Date: 07 December 2023
Orbit: 639 x 2488 km, 38.9° (Epoch: 03 March)

Event Time Altitude Azimuth Distance (km) Brightness Sun altitude
Rises 09:09:36 0° 210° (SSW) 4,031 11.4 16.5°
Reaches altitude 10° 09:13:29 10° 195° (SSW) 2,749 10.9 17.0°
Maximum altitude 09:17:54 20° 150° (SSE) 1,823 11.8 17.6°
Drops below altitude 10° 09:21:33 10° 103° (ESE) 2,209 10.9 18.1°
Sets 09:24:14 0° 85° (E) 3,012 11.1 18.4°
